Weather History for Pensacola NAS, FL

Change the Weather History Date:

Monday, October 1, 2012

  Actual Average Record
Temperature  
Mean Temperature 74 °F -  
Max Temperature 81 °F 80 °F 89 °F (1997)
Min Temperature 66 °F 64 °F 48 °F (1999)
Cooling Degree Days 8    
Growing Degree Days 24 (Base 50)    
Moisture  
Dew Point 70 °F    
Average Humidity 83    
Maximum Humidity 94    
Minimum Humidity 69    
Precipitation  
Precipitation 0.07 in - - ()
Sea Level Pressure  
Sea Level Pressure 29.63 in    
Wind  
Wind Speed 15 mph (SW)    
Max Wind Speed 24 mph    
Max Gust Speed 34 mph    
Visibility 10 miles    
Events Rain , Thunderstorm    
Averages and records for this station are not official NWS values.
T = Trace of Precipitation, MM = Missing Value Source: NWS Daily Summary

Daily Weather History Graph

Daily Weather History Graph

Search for Another Location

Airport:

Trip Planner

Search our weather history database for the weather conditions in past years. The results will help you decide how hot, cold, wet, or windy it might be!

Date:

Astronomy

Oct. 01, 2012 Rise Set
Actual Time 6:43 AM CDT 6:34 PM CDT
Civil Twilight 6:19 AM CDT 6:57 PM CDT
Nautical Twilight 5:51 AM CDT 7:25 PM CDT
Astronomical Twilight 5:23 AM CDT 7:53 PM CDT
Moon 7:22 PM CDT (10/1) 8:02 AM CDT (10/1)
Length of Visible Light 12h 38m
Length of Day
11h 50m
Full, 98% of the Moon is Illuminated
Oct 1
Full
Oct 8
Last Quarter
Oct 15
New
Oct 21
First Quarter
Oct 29
Full

Hourly Weather History & Observations

Time (CDT) Temp. Heat Index Dew Point Humidity Pressure Visibility Wind Dir Wind Speed Gust Speed Precip Events Conditions
12:16 AM 77.0 °F - 75.2 °F 94% 29.64 in 5.0 mi SSW 19.6 mph 28.8 mph 0.03 in Rain Light Rain
12:32 AM 77.0 °F - 75.2 °F 94% 29.63 in 10.0 mi South 17.3 mph - 0.03 in Rain Light Rain
12:56 AM 79.0 °F - 75.9 °F 90% 29.62 in 10.0 mi South 17.3 mph 23.0 mph 0.03 in   Partly Cloudy
1:49 AM 78.8 °F - 75.2 °F 89% 29.60 in 10.0 mi South 24.2 mph 31.1 mph N/A Thunderstorm Thunderstorm
1:56 AM 80.1 °F 85.8 °F 77.0 °F 90% 29.61 in 10.0 mi South 18.4 mph 31.1 mph N/A Thunderstorm Thunderstorm
2:11 AM 78.8 °F - 75.2 °F 89% 29.60 in 7.0 mi SW 19.6 mph 27.6 mph 0.01 in Rain Light Rain
2:26 AM 75.2 °F - 73.4 °F 94% 29.59 in 10.0 mi South 20.7 mph 31.1 mph 0.02 in   Overcast
2:56 AM 77.0 °F - 73.9 °F 90% 29.58 in 10.0 mi South 15.0 mph - 0.02 in   Scattered Clouds
3:56 AM 75.9 °F - 73.9 °F 94% 29.58 in 10.0 mi SSW 15.0 mph 26.5 mph N/A Rain Light Rain
4:56 AM 75.9 °F - 73.0 °F 91% 29.57 in 10.0 mi SSW 15.0 mph - N/A   Overcast
5:56 AM 78.1 °F - 75.0 °F 90% 29.56 in 10.0 mi South 16.1 mph - N/A   Mostly Cloudy
6:09 AM 77.0 °F - 75.2 °F 94% 29.57 in 2.0 mi WSW 11.5 mph 34.5 mph N/A Rain Heavy Rain
6:31 AM 77.0 °F - 73.4 °F 89% 29.57 in 10.0 mi WSW 9.2 mph 18.4 mph N/A   Mostly Cloudy
6:56 AM 77.0 °F - 73.9 °F 90% 29.58 in 10.0 mi WSW 9.2 mph 16.1 mph N/A   Mostly Cloudy
7:56 AM 79.0 °F - 73.9 °F 84% 29.59 in 10.0 mi SW 12.7 mph - N/A   Mostly Cloudy
8:13 AM 78.8 °F - 73.4 °F 83% 29.60 in 7.0 mi WSW 15.0 mph 26.5 mph 0.02 in Rain Light Rain
8:25 AM 75.2 °F - 73.4 °F 94% 29.60 in 10.0 mi WSW 5.8 mph - 0.02 in Rain Light Rain
8:56 AM 77.0 °F - 73.9 °F 90% 29.62 in 10.0 mi WSW 8.1 mph - 0.02 in   Mostly Cloudy
9:56 AM 78.1 °F - 71.1 °F 79% 29.64 in 10.0 mi WSW 12.7 mph 19.6 mph N/A   Mostly Cloudy
10:56 AM 79.0 °F - 71.1 °F 77% 29.63 in 10.0 mi WSW 15.0 mph 23.0 mph N/A   Mostly Cloudy
11:49 AM 80.6 °F 84.6 °F 71.6 °F 74% 29.64 in 10.0 mi WSW 11.5 mph 19.6 mph N/A   Mostly Cloudy
11:56 AM 81.0 °F 84.4 °F 70.0 °F 69% 29.64 in 10.0 mi SW 12.7 mph 18.4 mph N/A   Mostly Cloudy
12:26 PM 78.8 °F - 68.0 °F 69% 29.63 in 10.0 mi WSW 11.5 mph 26.5 mph N/A   Mostly Cloudy
12:56 PM 77.0 °F - 68.0 °F 74% 29.63 in 10.0 mi WSW 8.1 mph 21.9 mph N/A   Mostly Cloudy
1:56 PM 75.9 °F - 66.9 °F 74% 29.62 in 10.0 mi WSW 10.4 mph 20.7 mph N/A   Overcast
2:56 PM 77.0 °F - 66.0 °F 69% 29.62 in 10.0 mi SW 19.6 mph 26.5 mph N/A   Mostly Cloudy
3:56 PM 75.9 °F - 66.0 °F 71% 29.62 in 10.0 mi SW 16.1 mph 25.3 mph N/A   Mostly Cloudy
4:56 PM 73.9 °F - 64.0 °F 71% 29.62 in 10.0 mi WSW 10.4 mph 23.0 mph N/A   Mostly Cloudy
5:56 PM 73.0 °F - 64.0 °F 73% 29.63 in 10.0 mi WSW 10.4 mph 19.6 mph N/A   Mostly Cloudy
6:56 PM 71.1 °F - 63.0 °F 75% 29.65 in 10.0 mi West 9.2 mph - N/A   Mostly Cloudy
7:56 PM 71.1 °F - 63.0 °F 75% 29.67 in 10.0 mi West 4.6 mph - N/A   Mostly Cloudy
8:56 PM 68.0 °F - 63.0 °F 84% 29.70 in 10.0 mi West 3.5 mph - 0.00 in Rain Light Rain
9:10 PM 68.0 °F - 62.6 °F 83% 29.70 in 10.0 mi Calm Calm - 0.00 in   Overcast
9:56 PM 66.9 °F - 62.1 °F 84% 29.72 in 10.0 mi Variable 4.6 mph - 0.00 in   Mostly Cloudy
10:56 PM 66.9 °F - 62.1 °F 84% 29.73 in 10.0 mi Variable 3.5 mph - N/A   Mostly Cloudy
11:56 PM 66.9 °F - 62.1 °F 84% 29.74 in 10.0 mi Calm Calm - N/A   Overcast